[[{"header":{"parameterUnit":"m.s-1","parameterCategory":1,"la1":30.2991,"la2":30.254,"lo1":-89.0895,"lo2":-89.0444,"dy":0.0017,"dx":0.0017,"nx":28,"ny":28,"refTime":"2025-12-13T03:00:00:Z","depth":0,"parameterNumber":2,"parameterNumberName":"U-component_of_WINDS"},"data":[0,0,0,0,0,0,0,0,0,0,0,0,0,0,0,0,0,0,0,0,0,0,0,0,0,0,0,0,0,0,0,0,0,0,0,0,0,0,0,0,0,0,0,0,0,0,0,0,0,0,0,0,0,0,0,0,0,0,2.8598,2.8598,0,2.8609,2.8609,2.8609,2.8522,2.852,2.8517,2.8515,2.8532,2.8534,2.8537,0,0,0,0,0,0,0,0,0,0,0,0,0,2.8506,2.8508,2.8598,2.8598,2.8598,2.8609,2.8609,2.8609,2.8523,2.852,2.8517,2.8514,2.8531,2.8534,2.8537,0,0,0,0,0,0,0,0,0,0,0,0,0,2.8534,2.8508,2.8598,2.8556,2.8552,2.8609,2.8609,2.8609,2.8523,2.852,2.8516,2.8513,2.853,2.8534,2.8538,2.8636,0,0,2.855,2.8552,0,0,0,0,0,0,0,0,2.8533,2.8538,2.8562,2.8559,2.8555,2.856,2.8583,2.8619,2.8524,2.8535,2.8515,2.8511,2.8544,2.8547,2.8557,2.8637,2.8638,2.855,2.8553,2.8555,2.8556,0,0,0,0,0,0,0,2.8531,2.8537,2.8602,2.8562,2.8558,2.8538,2.8538,2.8589,2.856,2.8533,2.8527,2.8529,2.8542,2.8554,2.8557,2.8638,2.855,2.8554,2.8556,2.8558,2.8801,2.8805,0,0,0,0,0,0,2.8534,2.8536,2.8602,2.8603,2.8534,2.8543,2.8543,2.8562,2.8559,2.8555,2.8532,2.8525,2.8549,2.8553,2.8557,2.8673,2.8555,2.8558,2.8561,2.8797,2.8802,2.8806,0,0,0,0,0,0,2.8532,2.8541,2.8601,2.8567,2.8574,2.8548,2.8571,2.8565,2.8576,2.8558,2.8553,2.855,2.8546,2.8552,2.8617,2.8673,2.856,2.8564,2.8792,2.8798,2.8804,2.8906,0,0,0,0,0,0,2.853,2.8541,2.8576,2.8569,2.8576,2.866,2.8574,2.8567,2.8583,2.8574,2.8573,2.857,2.8543,2.8612,2.8621,2.8676,2.8567,2.8787,2.8795,2.8802,2.8898,2.8915,2.8929,0,0,0,0,0,2.8527,2.8605,2.8579,2.8587,2.862,2.8663,2.8667,2.8634,2.8588,2.8625,2.8613,2.857,2.8665,2.8619,2.8629,2.8686,2.8783,2.8793,2.8801,2.889,2.8911,2.8929,0,0,0,0,0,0,2.8621,2.8604,2.8574,2.8652,2.866,2.8648,2.8693,2.8657,2.8679,2.867,2.8629,2.863,2.8703,2.8701,2.865,2.8782,2.8716,2.8728,2.8781,2.88,2.8816,2.8815,2.8571,0,0,0,0,0,2.8651,2.8686,2.8669,2.874,2.8745,2.8719,2.8737,2.871,2.8717,2.8721,2.8714,2.8724,2.8756,2.8778,2.8807,2.8897,2.8896,2.8941,2.8957,2.8971,2.8981,2.903,2.905,2.8835,2.8835,2.8835,0,0,2.8713,2.8708,2.8733,2.8759,2.8762,2.88,2.8722,2.8766,2.8795,2.8728,2.8789,2.8785,2.8793,2.8872,2.8906,2.8873,2.904,2.8982,2.8993,2.8996,2.9041,2.9062,2.908,2.8842,2.884,2.884,0,0,2.8846,2.8845,2.8904,2.8909,2.8914,2.8896,2.891,2.8905,2.8899,2.896,2.891,2.8945,2.9001,2.9009,2.9021,2.9159,2.912,2.9169,2.9253,2.9301,2.9318,2.9332,2.9382,2.9401,2.918,2.918,2.918,0,2.8923,2.8978,2.894,2.8987,2.9001,2.894,2.9001,2.9008,2.9023,2.9034,2.8996,2.9066,2.9067,2.9147,2.9181,2.9192,2.9209,2.9169,2.9318,2.9332,2.9346,2.9393,2.9412,2.9186,2.9185,2.9185,2.9184,0,2.9073,2.9112,2.9159,2.9174,2.9193,2.9247,2.9218,2.9243,2.9216,2.9203,2.9266,2.9266,2.9294,2.9311,2.9285,2.9388,2.9367,2.9325,2.9257,2.9373,2.9417,2.9434,2.9195,2.9192,2.9191,2.9189,0,0,2.9264,2.9258,2.9276,2.9282,2.9284,2.9314,2.9367,2.9392,2.9415,2.9428,2.9471,2.9521,2.9481,2.9495,2.9469,2.9512,2.9622,2.9464,2.9463,2.9494,2.9737,2.977,2.9791,2.9596,2.96,2.9602,2.9737,0,2.9394,2.9481,2.9449,2.9539,2.9575,2.9519,2.9565,2.9572,2.9562,2.9593,2.9582,2.9618,2.9562,2.957,2.961,2.96,2.9671,2.959,2.9638,2.964,2.9638,2.9814,2.9848,2.9974,2.9753,2.9756,2.9758,0,2.9557,2.9575,2.9669,2.9665,2.9679,2.9721,2.9743,2.9772,2.978,2.977,2.9785,2.9752,2.9804,2.9738,2.9811,2.9757,2.9775,2.9773,2.9778,2.9781,2.9706,2.9822,3.0014,3.0033,2.9785,2.9783,2.9781,0,2.9688,2.9737,2.9799,2.9806,2.9803,2.9834,2.9835,2.9838,2.9857,2.9877,2.9888,2.9915,2.993,2.9952,2.9927,2.988,3.0005,2.9935,2.9999,3.0,3.0027,3.0026,3.0225,3.0039,3.0038,3.0038,3.0038,0,2.9837,2.9896,2.9858,2.9896,2.9962,2.9925,2.9992,2.9987,2.9991,3.0029,2.9982,3.0019,2.9984,3.0018,2.9999,3.0063,3.007,3.0064,3.0059,3.0069,3.0069,3.008,3.0071,3.0043,3.0042,3.0041,3.004,0,2.9994,2.997,3.0035,3.0027,3.0027,3.0076,3.007,3.0106,3.0092,3.0141,3.015,3.013,3.0168,3.0145,3.0184,3.0172,3.0255,3.0237,3.0252,3.0248,3.0313,3.0307,3.0525,3.0553,3.0349,3.0351,3.0353,0,3.009,3.0134,3.0132,3.0153,3.0156,3.0191,3.0209,3.0176,3.0197,3.021,3.0246,3.0279,3.0304,3.0368,3.0358,3.0388,3.037,3.0445,3.0375,3.0384,3.0372,3.037,3.0375,3.0459,3.0462,3.0464,3.0465,0,3.0264,3.025,3.0277,3.0301,3.0324,3.0341,3.0355,3.0376,3.0343,3.0369,3.0407,3.0426,3.0466,3.0501,3.0526,3.0529,3.0493,3.0487,3.0504,3.0514,3.0521,3.0519,3.0291,3.0483,3.0481,3.048,3.0479,3.0478,3.0393,3.0431,3.0435,3.0467,3.0474,3.0488,3.0522,3.0513,3.0543,3.0572,3.0551,3.0596,3.0604,3.0635,3.0642,3.0678,3.0648,3.0672,3.0678,3.0684,3.0693,3.0516,3.0683,3.0682,3.0682,3.0681,3.0681,0,3.0565,3.0565,3.0595,3.0615,3.0642,3.0604,3.0618,3.0643,3.0682,3.0692,3.0718,3.0762,3.0796,3.0789,3.082,3.085,3.0834,3.0859,3.0857,3.0858,3.0718,3.0701,3.0872,3.0872,3.0872,3.0872,3.0871,3.0871,3.0657,3.0718,3.0706,3.0771,3.077,3.0813,3.0824,3.0838,3.0846,3.0897,3.0924,3.0919,3.0923,3.0954,3.0984,3.0981,3.0995,3.1026,3.1018,3.0887,3.0868,3.085,3.0834,3.103,3.103,3.1155,3.1156,3.1157]},{"header":{"parameterUnit":"m.s-1","parameterCategory":1,"la1":30.2991,"la2":30.254,"lo1":-89.0895,"lo2":-89.0444,"dy":0.0017,"dx":0.0017,"nx":28,"ny":28,"refTime":"2025-12-13T03:00:00:Z","depth":0,"parameterNumber":3,"parameterNumberName":"V-component_of_WINDS"},"data":[0,0,0,0,0,0,0,0,0,0,0,0,0,0,0,0,0,0,0,0,0,0,0,0,0,0,0,0,0,0,0,0,0,0,0,0,0,0,0,0,0,0,0,0,0,0,0,0,0,0,0,0,0,0,0,0,0,0,0.9404,0.9403,0,0.9312,0.9311,0.931,0.9266,0.9266,0.9266,0.9266,0.9166,0.9164,0.9161,0,0,0,0,0,0,0,0,0,0,0,0,0,0.9535,0.9533,0.9404,0.9403,0.9402,0.9312,0.9311,0.931,0.9266,0.9266,0.9266,0.9266,0.9167,0.9164,0.9161,0,0,0,0,0,0,0,0,0,0,0,0,0,0.9464,0.9532,0.9404,0.9369,0.9365,0.9313,0.9311,0.9309,0.9266,0.9266,0.9266,0.9266,0.9168,0.9164,0.916,0.9134,0,0,0.9148,0.9146,0,0,0,0,0,0,0,0,0.9468,0.9459,0.9375,0.9371,0.9367,0.9301,0.9321,0.925,0.9266,0.9303,0.9266,0.9266,0.9211,0.9203,0.9186,0.9129,0.9125,0.9148,0.9145,0.9143,0.9142,0,0,0,0,0,0,0,0.9473,0.9463,0.9367,0.9374,0.9369,0.9356,0.9346,0.9307,0.9257,0.93,0.9297,0.9287,0.9208,0.919,0.9183,0.9124,0.9148,0.9144,0.9142,0.914,0.904,0.904,0,0,0,0,0,0,0.9485,0.9468,0.937,0.9365,0.9419,0.9354,0.9342,0.9322,0.9258,0.9248,0.9287,0.9285,0.9196,0.9188,0.9179,0.9143,0.9144,0.914,0.9137,0.904,0.904,0.9039,0,0,0,0,0,0,0.9488,0.9476,0.9374,0.9415,0.9401,0.9351,0.9328,0.932,0.9301,0.9248,0.9238,0.9277,0.9196,0.9185,0.9146,0.9139,0.9138,0.9134,0.904,0.904,0.904,0.9072,0,0,0,0,0,0,0.9492,0.9478,0.9469,0.9415,0.9399,0.9344,0.9328,0.9318,0.9295,0.9292,0.9236,0.9227,0.9195,0.9152,0.9142,0.9134,0.9131,0.9041,0.904,0.904,0.9072,0.9073,0.9075,0,0,0,0,0,0.9497,0.9481,0.9469,0.9457,0.9387,0.9344,0.9334,0.93,0.9295,0.9284,0.925,0.9229,0.9142,0.9148,0.9136,0.9127,0.9041,0.904,0.904,0.9071,0.9073,0.9075,0,0,0,0,0,0,0.9533,0.9473,0.9459,0.9426,0.9391,0.9337,0.9322,0.9303,0.9267,0.9265,0.9222,0.921,0.9174,0.9146,0.9155,0.9098,0.9089,0.9086,0.9117,0.9118,0.912,0.9127,0.9128,0,0,0,0,0,0.9538,0.9509,0.9458,0.9433,0.9417,0.9373,0.9352,0.9329,0.929,0.9274,0.9237,0.9198,0.9161,0.9138,0.9102,0.9067,0.9054,0.9055,0.9057,0.9058,0.9056,0.9034,0.9033,0.9038,0.9038,0.9038,0,0,0.9546,0.951,0.9494,0.944,0.941,0.9379,0.936,0.9329,0.9306,0.9268,0.923,0.9201,0.9154,0.9117,0.9099,0.9093,0.9052,0.9057,0.9059,0.9056,0.9033,0.9033,0.9033,0.9037,0.9037,0.9037,0,0,0.9546,0.9516,0.9493,0.9463,0.9418,0.9389,0.9383,0.9332,0.9312,0.9273,0.9244,0.9214,0.9153,0.9121,0.9097,0.9084,0.9063,0.9073,0.908,0.906,0.9059,0.9059,0.9053,0.9052,0.9071,0.9071,0.9071,0,0.9562,0.9517,0.9482,0.9453,0.9429,0.9396,0.937,0.9342,0.9287,0.927,0.9265,0.9187,0.9154,0.9108,0.9105,0.9087,0.9077,0.9079,0.9062,0.9062,0.906,0.9054,0.9053,0.9072,0.9072,0.9072,0.9072,0,0.9538,0.9507,0.9493,0.9443,0.9417,0.939,0.9349,0.9327,0.9305,0.9276,0.9235,0.9194,0.9148,0.9136,0.9113,0.9086,0.9084,0.9071,0.9062,0.9062,0.9056,0.9053,0.9075,0.9074,0.9074,0.9073,0,0,0.9558,0.9489,0.9485,0.9461,0.9409,0.9383,0.9353,0.9311,0.9292,0.9255,0.9227,0.9176,0.9164,0.9136,0.911,0.9092,0.9083,0.9081,0.9079,0.9082,0.9049,0.9058,0.9057,0.9069,0.9068,0.9068,0.9052,0,0.9551,0.9498,0.9466,0.9426,0.9396,0.9363,0.9337,0.9301,0.9273,0.9241,0.9209,0.9173,0.916,0.9143,0.9124,0.9089,0.9076,0.9089,0.9041,0.904,0.9054,0.9053,0.9064,0.9051,0.905,0.9049,0.9049,0,0.9535,0.95,0.9458,0.9408,0.9394,0.9372,0.9329,0.9301,0.9258,0.9239,0.9208,0.9182,0.9146,0.914,0.909,0.91,0.9078,0.9058,0.9056,0.905,0.9044,0.9046,0.9046,0.9044,0.9045,0.9045,0.9045,0,0.9553,0.9496,0.9463,0.9443,0.9385,0.937,0.9344,0.9302,0.9278,0.924,0.9224,0.9181,0.9158,0.9125,0.9087,0.9086,0.904,0.9031,0.9021,0.9022,0.9013,0.9014,0.9009,0.9,0.9,0.9,0.9,0,0.9548,0.9523,0.947,0.945,0.942,0.9382,0.9353,0.9324,0.9287,0.9259,0.9227,0.9201,0.9153,0.912,0.909,0.9052,0.9042,0.9024,0.9016,0.9026,0.9028,0.9011,0.901,0.9,0.9,0.9,0.9,0,0.9563,0.9527,0.9489,0.9437,0.9423,0.9404,0.9358,0.9336,0.9306,0.927,0.926,0.9212,0.9171,0.9131,0.9075,0.9055,0.9018,0.9007,0.9033,0.9028,0.9021,0.9022,0.9003,0.8998,0.8994,0.8994,0.8995,0,0.9562,0.9542,0.9488,0.9468,0.9444,0.9412,0.9388,0.9349,0.9324,0.9274,0.9257,0.9215,0.9179,0.9116,0.9074,0.9032,0.902,0.9016,0.9013,0.9024,0.9018,0.902,0.9017,0.9017,0.9018,0.9018,0.9018,0,0.9563,0.9546,0.9514,0.9474,0.9447,0.9414,0.9379,0.9364,0.9317,0.9291,0.925,0.9223,0.9167,0.9125,0.9077,0.9048,0.9024,0.902,0.9015,0.9025,0.904,0.9031,0.9036,0.902,0.902,0.902,0.9019,0.9019,0.9569,0.955,0.9509,0.9473,0.9444,0.9412,0.9389,0.9356,0.9322,0.9275,0.9254,0.9212,0.9168,0.9103,0.9074,0.904,0.9033,0.9027,0.9025,0.9024,0.9026,0.9046,0.9031,0.9031,0.903,0.903,0.903,0,0.9568,0.954,0.9508,0.9462,0.9433,0.9416,0.9376,0.9353,0.9318,0.928,0.9245,0.9198,0.9156,0.9112,0.9067,0.9048,0.9036,0.9038,0.9038,0.9031,0.9034,0.9043,0.9048,0.9048,0.9048,0.9048,0.9048,0.9048,0.9564,0.953,0.9509,0.9459,0.943,0.9392,0.937,0.934,0.931,0.9259,0.9225,0.9197,0.9156,0.9108,0.9068,0.9056,0.904,0.9045,0.9029,0.9033,0.9031,0.903,0.9038,0.9042,0.9042,0.9029,0.9029,0.9029]}]]